QPF
0.00 0.00 0.00 0.00 0.00 0.00 0.00 0.00 0.00 0.00 0.00 0.01 0.00 0.00 0.00 0.00 0.00 0.00 0.01 0.00 0.00 0.00 0.00 0.00 0.00 0.01 0.01 0.01 0.01 0.02 0.03 0.04 0.05 0.06 0.07 0.10 0.13 0.15
0.00 0.00 0.00 0.00 0.00 0.00 0.00 0.00 0.00 0.00 0.00 0.00 0.00 0.00 0.00 0.00 0.00 0.00 0.00 0.00 0.00 0.00 0.00 0.00 0.00 0.00 0.00 0.00 0.01 0.01 0.01 0.01 0.02 0.03 0.04 0.04 0.06 0.08
0.00 0.00 0.00 0.00 0.00 0.00 0.00 0.00 0.00 0.00 0.00 0.00 0.00 0.00 0.00 0.00 0.00 0.00 0.00 0.00 0.00 0.00 0.00 0.00 0.00 0.00 0.00 0.00 0.00 0.00 0.01 0.01 0.01 0.01 0.02 0.02 0.03 0.04
0.00 0.00 0.00 0.00 0.00 0.00 0.00 0.00 0.00 0.00 0.00 0.00 0.00 0.00 0.00 0.00 0.00 0.00 0.00 0.00 0.00 0.00 0.00 0.00 0.00 0.00 0.00 0.00 0.00 0.00 0.00 0.01 0.01 0.01 0.01 0.02 0.02 0.03
0.00 0.00 0.00 0.00 0.00 0.01 0.00 0.00 0.00 0.00 0.00 0.00 0.00 0.00 0.00 0.00 0.00 0.00 0.00 0.00 0.00 0.00 0.00 0.00 0.00 0.00 0.00 0.00 0.00 0.00 0.00 0.00 0.00 0.00 0.01 0.02 0.02 0.02
0.00 0.01 0.00 0.00 0.01 0.01 0.01 0.01 0.00 0.00 0.00 0.00 0.00 0.00 0.00 0.00 0.00 0.00 0.00 0.00 0.00 0.00 0.00 0.00 0.00 0.00 0.00 0.00 0.00 0.00 0.00 0.00 0.00 0.00 0.00 0.01 0.01 0.01
0.00 0.00 0.00 0.00 0.01 0.01 0.01 0.01 0.01 0.01 0.00 0.00 0.00 0.00 0.00 0.01 0.01 0.01 0.01 0.01 0.00 0.00 0.00 0.00 0.00 0.00 0.00 0.00 0.00 0.00 0.00 0.00 0.00 0.00 0.00 0.00 0.01 0.01
0.00 0.01 0.01 0.00 0.00 0.00 0.00 0.00 0.01 0.01 0.00 0.00 0.00 0.00 0.01 0.01 0.02 0.01 0.01 0.02 0.01 0.00 0.01 0.00 0.00 0.00 0.00 0.00 0.00 0.00 0.00 0.00 0.00 0.00 0.00 0.00 0.01 0.01
0.00 0.01 0.00 0.00 0.01 0.01 0.01 0.01 0.00 0.00 0.00 0.00 0.00 0.00 0.00 0.01 0.02 0.02 0.03 0.03 0.02 0.01 0.02 0.01 0.00 0.00 0.00 0.00 0.00 0.00 0.00 0.00 0.00 0.00 0.00 0.00 0.00 0.01
0.00 0.00 0.01 0.01 0.01 0.01 0.02 0.02 0.02 0.01 0.01 0.01 0.01 0.00 0.00 0.01 0.03 0.02 0.03 0.02 0.01 0.01 0.02 0.01 0.00 0.00 0.00 0.00 0.00 0.00 0.00 0.00 0.00 0.00 0.00 0.00 0.00 0.00
0.00 0.01 0.02 0.02 0.02 0.02 0.02 0.02 0.01 0.01 0.01 0.01 0.01 0.01 0.01 0.01 0.01 0.01 0.01 0.01 0.01 0.01 0.02 0.02 0.01 0.01 0.00 0.00 0.00 0.00 0.00 0.00 0.00 0.00 0.00 0.00 0.00 0.00
0.02 0.02 0.01 0.01 0.01 0.01 0.01 0.02 0.02 0.01 0.02 0.02 0.02 0.01 0.01 0.00 0.00 0.01 0.01 0.01 0.01 0.01 0.01 0.03 0.02 0.03 0.02 0.00 0.00 0.01 0.01 0.01 0.00 0.00 0.00 0.00 0.00 0.00
0.01 0.01 0.00 0.01 0.01 0.01 0.01 0.01 0.01 0.01 0.02 0.03 0.02 0.02 0.02 0.02 0.02 0.02 0.02 0.02 0.02 0.01 0.01 0.03 0.03 0.04 0.04 0.02 0.01 0.01 0.02 0.03 0.02 0.01 0.00 0.00 0.00 0.00
0.01 0.00 0.01 0.01 0.01 0.00 0.00 0.00 0.00 0.00 0.01 0.01 0.01 0.01 0.01 0.02 0.02 0.03 0.05 0.06 0.04 0.02 0.02 0.04 0.05 0.05 0.05 0.03 0.02 0.01 0.02 0.02 0.03 0.04 0.04 0.02 0.01 0.01
0.01 0.01 0.00 0.00 0.00 0.00 0.00 0.00 0.00 0.00 0.01 0.01 0.01 0.01 0.01 0.01 0.02 0.03 0.05 0.08 0.08 0.04 0.03 0.05 0.06 0.05 0.06 0.04 0.01 0.01 0.02 0.02 0.03 0.04 0.05 0.05 0.05 0.04
0.01 0.01 0.01 0.01 0.00 0.00 0.00 0.01 0.01 0.00 0.01 0.01 0.02 0.02 0.02 0.03 0.04 0.04 0.05 0.07 0.09 0.05 0.04 0.06 0.07 0.07 0.06 0.04 0.03 0.02 0.02 0.02 0.02 0.03 0.05 0.06 0.07 0.07
0.02 0.01 0.01 0.02 0.02 0.02 0.02 0.02 0.03 0.04 0.04 0.03 0.04 0.04 0.05 0.05 0.05 0.06 0.07 0.09 0.08 0.06 0.04 0.06 0.07 0.09 0.08 0.07 0.06 0.03 0.02 0.02 0.02 0.04 0.06 0.05 0.05 0.06
0.01 0.01 0.01 0.01 0.02 0.03 0.04 0.04 0.05 0.06 0.07 0.09 0.09 0.09 0.08 0.08 0.07 0.08 0.10 0.10 0.09 0.07 0.05 0.05 0.09 0.11 0.10 0.07 0.04 0.03 0.02 0.01 0.02 0.05 0.07 0.05 0.03 0.03
0.00 0.01 0.01 0.01 0.02 0.03 0.04 0.05 0.05 0.06 0.09 0.11 0.13 0.13 0.13 0.13 0.12 0.11 0.12 0.13 0.11 0.08 0.06 0.06 0.08 0.10 0.08 0.04 0.02 0.02 0.02 0.03 0.05 0.06 0.07 0.06 0.03 0.04
0.01 0.01 0.02 0.02 0.03 0.03 0.04 0.05 0.06 0.08 0.10 0.12 0.12 0.13 0.15 0.16 0.16 0.14 0.13 0.13 0.11 0.10 0.08 0.07 0.07 0.07 0.06 0.05 0.05 0.05 0.03 0.04 0.05 0.06 0.06 0.07 0.06 0.06
0.02 0.03 0.03 0.04 0.04 0.05 0.06 0.07 0.08 0.09 0.10 0.12 0.13 0.14 0.14 0.15 0.13 0.12 0.12 0.11 0.10 0.10 0.09 0.06 0.07 0.07 0.09 0.11 0.06 0.03 0.03 0.03 0.03 0.05 0.07 0.09 0.09 0.08
0.03 0.03 0.04 0.05 0.06 0.07 0.09 0.08 0.09 0.09 0.10 0.12 0.13 0.13 0.14 0.15 0.13 0.12 0.12 0.12 0.13 0.11 0.09 0.08 0.10 0.14 0.12 0.10 0.05 0.04 0.04 0.06 0.06 0.03 0.03 0.05 0.07 0.08
0.04 0.04 0.05 0.05 0.07 0.09 0.09 0.10 0.11 0.12 0.13 0.13 0.13 0.12 0.13 0.14 0.15 0.14 0.14 0.15 0.14 0.14 0.14 0.12 0.12 0.14 0.13 0.11 0.09 0.07 0.06 0.09 0.12 0.10 0.04 0.02 0.02 0.02
MSLP
1018.72 1018.95 1019.20 1019.44 1019.64 1019.77 1019.80 1019.73 1019.56 1019.30 1018.98 1018.63 1018.28 1017.95 1017.66 1017.44 1017.27 1017.17 1017.12 1017.11 1017.13 1017.17 1017.22 1017.27 1017.32 1017.37 1017.43 1017.51 1017.62 1017.76 1017.94 1018.15 1018.39 1018.64 1018.88 1019.10 1019.29 1019.45
1018.51 1018.68 1018.88 1019.08 1019.25 1019.38 1019.44 1019.41 1019.30 1019.11 1018.85 1018.54 1018.21 1017.88 1017.58 1017.32 1017.10 1016.94 1016.83 1016.77 1016.76 1016.78 1016.82 1016.88 1016.96 1017.04 1017.14 1017.26 1017.40 1017.57 1017.76 1017.97 1018.19 1018.41 1018.61 1018.79 1018.94 1019.05
1018.28 1018.39 1018.52 1018.66 1018.80 1018.91 1018.97 1018.97 1018.91 1018.78 1018.58 1018.33 1018.04 1017.74 1017.43 1017.14 1016.89 1016.67 1016.51 1016.39 1016.33 1016.32 1016.35 1016.42 1016.51 1016.62 1016.76 1016.91 1017.08 1017.27 1017.47 1017.69 1017.91 1018.12 1018.31 1018.47 1018.60 1018.69
1018.04 1018.08 1018.14 1018.22 1018.30 1018.39 1018.45 1018.47 1018.45 1018.38 1018.24 1018.06 1017.82 1017.55 1017.26 1016.96 1016.68 1016.42 1016.21 1016.04 1015.93 1015.88 1015.88 1015.92 1016.01 1016.12 1016.26 1016.43 1016.61 1016.81 1017.02 1017.24 1017.47 1017.69 1017.89 1018.06 1018.20 1018.30
1017.73 1017.72 1017.72 1017.75 1017.79 1017.85 1017.90 1017.94 1017.96 1017.93 1017.86 1017.74 1017.56 1017.34 1017.08 1016.80 1016.51 1016.23 1015.98 1015.77 1015.60 1015.50 1015.45 1015.44 1015.49 1015.57 1015.69 1015.83 1015.99 1016.18 1016.38 1016.61 1016.84 1017.07 1017.30 1017.51 1017.68 1017.83
1017.32 1017.27 1017.24 1017.23 1017.24 1017.28 1017.33 1017.39 1017.43 1017.45 1017.44 1017.38 1017.27 1017.11 1016.90 1016.65 1016.38 1016.09 1015.82 1015.57 1015.36 1015.19 1015.08 1015.01 1014.99 1015.00 1015.06 1015.14 1015.25 1015.40 1015.58 1015.78 1016.02 1016.27 1016.53 1016.79 1017.02 1017.23
1016.76 1016.71 1016.67 1016.65 1016.65 1016.68 1016.73 1016.80 1016.86 1016.92 1016.96 1016.96 1016.91 1016.81 1016.66 1016.45 1016.21 1015.95 1015.67 1015.41 1015.16 1014.95 1014.76 1014.62 1014.51 1014.44 1014.41 1014.41 1014.45 1014.53 1014.66 1014.83 1015.06 1015.32 1015.61 1015.92 1016.22 1016.49
1016.06 1016.02 1015.99 1015.98 1015.99 1016.02 1016.07 1016.14 1016.22 1016.30 1016.37 1016.42 1016.42 1016.38 1016.28 1016.14 1015.95 1015.72 1015.46 1015.20 1014.94 1014.69 1014.46 1014.25 1014.06 1013.90 1013.77 1013.68 1013.63 1013.63 1013.70 1013.83 1014.03 1014.30 1014.61 1014.95 1015.31 1015.64
1015.25 1015.24 1015.24 1015.25 1015.26 1015.30 1015.35 1015.41 1015.49 1015.57 1015.65 1015.72 1015.76 1015.76 1015.72 1015.63 1015.49 1015.31 1015.10 1014.86 1014.61 1014.35 1014.09 1013.84 1013.59 1013.36 1013.15 1012.98 1012.85 1012.78 1012.78 1012.86 1013.03 1013.27 1013.59 1013.95 1014.32 1014.69
1014.40 1014.43 1014.46 1014.49 1014.51 1014.54 1014.57 1014.61 1014.67 1014.73 1014.79 1014.86 1014.91 1014.93 1014.93 1014.88 1014.80 1014.68 1014.52 1014.32 1014.10 1013.86 1013.61 1013.35 1013.08 1012.81 1012.56 1012.33 1012.14 1012.02 1011.96 1011.99 1012.11 1012.32 1012.61 1012.95 1013.33 1013.69
1013.62 1013.68 1013.73 1013.76 1013.77 1013.78 1013.77 1013.77 1013.78 1013.80 1013.83 1013.86 1013.90 1013.92 1013.94 1013.92 1013.88 1013.81 1013.70 1013.56 1013.39 1013.20 1012.98 1012.74 1012.49 1012.23 1011.97 1011.73 1011.52 1011.36 1011.26 1011.25 1011.32 1011.48 1011.71 1012.01 1012.34 1012.68
1012.99 1013.05 1013.09 1013.10 1013.09 1013.05 1012.99 1012.93 1012.87 1012.83 1012.80 1012.79 1012.80 1012.81 1012.82 1012.82 1012.80 1012.76 1012.70 1012.62 1012.51 1012.37 1012.21 1012.03 1011.83 1011.61 1011.38 1011.16 1010.96 1010.79 1010.67 1010.61 1010.63 1010.73 1010.90 1011.12 1011.39 1011.66
1012.53 1012.57 1012.58 1012.54 1012.47 1012.37 1012.24 1012.11 1011.98 1011.87 1011.78 1011.72 1011.69 1011.67 1011.67 1011.67 1011.66 1011.64 1011.62 1011.57 1011.51 1011.44 1011.34 1011.23 1011.10 1010.94 1010.78 1010.60 1010.43 1010.27 1010.14 1010.05 1010.02 1010.05 1010.13 1010.27 1010.44 1010.63
1012.22 1012.21 1012.16 1012.05 1011.90 1011.72 1011.52 1011.31 1011.12 1010.95 1010.82 1010.72 1010.65 1010.60 1010.58 1010.56 1010.55 1010.54 1010.53 1010.51 1010.49 1010.47 1010.43 1010.38 1010.32 1010.24 1010.14 1010.02 1009.88 1009.75 1009.61 1009.50 1009.42 1009.38 1009.38 1009.42 1009.50 1009.60
1011.99 1011.90 1011.76 1011.56 1011.33 1011.06 1010.79 1010.53 1010.29 1010.08 1009.92 1009.79 1009.71 1009.65 1009.61 1009.58 1009.56 1009.55 1009.53 1009.53 1009.52 1009.53 1009.53 1009.54 1009.54 1009.52 1009.47 1009.40 1009.31 1009.19 1009.05 1008.91 1008.78 1008.67 1008.59 1008.55 1008.54 1008.56
1011.72 1011.53 1011.28 1010.99 1010.67 1010.33 1010.01 1009.71 1009.45 1009.23 1009.07 1008.95 1008.87 1008.82 1008.78 1008.75 1008.72 1008.69 1008.67 1008.65 1008.65 1008.66 1008.69 1008.73 1008.76 1008.78 1008.78 1008.74 1008.67 1008.55 1008.41 1008.24 1008.07 1007.90 1007.76 1007.64 1007.56 1007.52
1011.32 1011.01 1010.66 1010.27 1009.87 1009.48 1009.12 1008.81 1008.56 1008.38 1008.25 1008.16 1008.12 1008.08 1008.06 1008.03 1008.00 1007.96 1007.92 1007.89 1007.88 1007.89 1007.91 1007.95 1008.00 1008.04 1008.05 1008.03 1007.96 1007.84 1007.69 1007.49 1007.28 1007.07 1006.87 1006.71 1006.59 1006.51
1010.71 1010.30 1009.84 1009.37 1008.92 1008.50 1008.13 1007.84 1007.63 1007.49 1007.42 1007.39 1007.39 1007.40 1007.41 1007.40 1007.36 1007.32 1007.27 1007.22 1007.19 1007.18 1007.19 1007.22 1007.26 1007.30 1007.31 1007.28 1007.20 1007.07 1006.89 1006.67 1006.43 1006.19 1005.97 1005.78 1005.65 1005.57
1009.91 1009.41 1008.88 1008.35 1007.86 1007.43 1007.08 1006.83 1006.67 1006.60 1006.59 1006.62 1006.68 1006.74 1006.77 1006.78 1006.76 1006.71 1006.65 1006.59 1006.54 1006.51 1006.51 1006.52 1006.54 1006.56 1006.55 1006.51 1006.41 1006.26 1006.06 1005.82 1005.56 1005.31 1005.08 1004.89 1004.77 1004.72
1009.01 1008.43 1007.85 1007.29 1006.79 1006.38 1006.06 1005.86 1005.76 1005.74 1005.79 1005.89 1005.99 1006.08 1006.14 1006.16 1006.15 1006.10 1006.03 1005.96 1005.90 1005.85 1005.84 1005.83 1005.84 1005.84 1005.81 1005.74 1005.62 1005.45 1005.22 1004.97 1004.70 1004.45 1004.23 1004.07 1003.98 1003.96
1008.10 1007.48 1006.88 1006.32 1005.83 1005.45 1005.18 1005.02 1004.97 1005.01 1005.10 1005.23 1005.35 1005.46 1005.53 1005.56 1005.54 1005.48 1005.41 1005.33 1005.26 1005.21 1005.18 1005.16 1005.15 1005.13 1005.08 1004.99 1004.84 1004.65 1004.41 1004.15 1003.88 1003.63 1003.44 1003.31 1003.26 1003.30
1007.32 1006.69 1006.09 1005.55 1005.10 1004.76 1004.53 1004.42 1004.40 1004.46 1004.57 1004.70 1004.83 1004.93 1004.98 1004.99 1004.95 1004.88 1004.79 1004.70 1004.63 1004.57 1004.53 1004.51 1004.48 1004.44 1004.37 1004.26 1004.09 1003.88 1003.63 1003.36 1003.09 1002.86 1002.68 1002.59 1002.59 1002.68
1006.73 1006.12 1005.55 1005.06 1004.66 1004.36 1004.18 1004.09 1004.09 1004.16 1004.26 1004.37 1004.46 1004.52 1004.53 1004.50 1004.42 1004.33 1004.22 1004.11 1004.02 1003.95 1003.90 1003.87 1003.83 1003.77 1003.68 1003.54 1003.36 1003.13 1002.86 1002.59 1002.33 1002.10 1001.95 1001.89 1001.92 1002.06
Thickness
5716 5714 5711 5711 5710 5708 5705 5700 5692 5686 5687 5694 5697 5699 5696 5693 5690 5687 5685 5683 5681 5680 5680 5680 5679 5680 5680 5681 5683 5684 5685 5686 5688 5689 5691 5692 5693 5693
5713 5710 5708 5707 5706 5705 5702 5699 5695 5689 5683 5688 5690 5693 5692 5690 5687 5684 5682 5680 5679 5678 5677 5677 5676 5676 5676 5677 5677 5678 5680 5681 5682 5684 5685 5687 5689 5690
5711 5708 5706 5704 5701 5700 5698 5696 5693 5689 5683 5684 5687 5688 5687 5685 5683 5681 5679 5678 5677 5676 5676 5675 5674 5673 5672 5672 5672 5673 5674 5675 5676 5678 5679 5681 5683 5685
5707 5705 5703 5701 5697 5694 5692 5690 5689 5687 5682 5678 5680 5681 5681 5681 5680 5678 5676 5675 5675 5675 5674 5673 5671 5670 5669 5668 5668 5668 5669 5669 5670 5672 5673 5675 5677 5679
5705 5702 5700 5697 5693 5691 5688 5686 5685 5684 5682 5677 5676 5677 5677 5677 5676 5674 5673 5672 5671 5671 5671 5670 5669 5667 5665 5664 5664 5664 5664 5664 5665 5666 5667 5669 5671 5673
5701 5699 5697 5694 5690 5687 5685 5682 5680 5677 5675 5673 5672 5672 5672 5673 5671 5667 5665 5666 5666 5667 5667 5666 5665 5664 5662 5661 5660 5660 5659 5659 5659 5659 5660 5662 5665 5667
5697 5695 5693 5691 5688 5685 5682 5679 5675 5672 5669 5667 5666 5666 5666 5664 5662 5662 5659 5659 5660 5661 5660 5661 5661 5659 5658 5657 5656 5655 5655 5654 5654 5654 5655 5656 5658 5660
5692 5690 5688 5686 5684 5681 5678 5674 5670 5666 5663 5661 5660 5658 5658 5658 5657 5655 5652 5650 5649 5653 5652 5652 5653 5653 5653 5653 5654 5653 5652 5650 5649 5649 5649 5650 5651 5653
5687 5684 5683 5684 5681 5678 5674 5670 5667 5663 5659 5655 5653 5652 5652 5651 5649 5647 5644 5642 5642 5644 5642 5642 5644 5644 5647 5648 5649 5649 5648 5646 5645 5644 5643 5644 5645 5647
5681 5679 5677 5676 5675 5672 5670 5667 5664 5662 5658 5653 5651 5651 5649 5647 5644 5641 5638 5637 5638 5638 5636 5634 5637 5638 5641 5642 5642 5642 5641 5640 5640 5639 5638 5638 5639 5640
5675 5674 5672 5671 5669 5666 5662 5660 5658 5658 5656 5654 5652 5650 5647 5644 5639 5634 5631 5627 5628 5631 5631 5629 5631 5632 5634 5635 5636 5636 5635 5634 5634 5633 5633 5633 5633 5633
5668 5668 5666 5665 5663 5659 5655 5652 5650 5649 5648 5647 5645 5642 5640 5638 5634 5628 5625 5621 5621 5623 5626 5623 5623 5622 5622 5627 5628 5629 5628 5628 5627 5626 5626 5626 5626 5624
5659 5660 5660 5657 5654 5650 5646 5644 5643 5640 5638 5637 5636 5635 5635 5633 5632 5628 5624 5619 5616 5618 5620 5617 5615 5614 5612 5615 5618 5620 5620 5621 5620 5620 5620 5620 5619 5618
5649 5649 5649 5645 5642 5639 5636 5635 5633 5629 5627 5627 5626 5626 5626 5626 5626 5625 5623 5620 5617 5615 5614 5610 5607 5604 5602 5603 5606 5610 5612 5614 5614 5615 5616 5616 5615 5614
5638 5637 5634 5631 5630 5629 5628 5625 5622 5619 5618 5617 5618 5618 5619 5620 5619 5617 5616 5614 5612 5610 5608 5605 5601 5599 5596 5595 5597 5600 5601 5605 5607 5609 5610 5610 5610 5610
5624 5624 5622 5621 5619 5619 5619 5618 5615 5613 5611 5611 5611 5611 5610 5609 5608 5607 5605 5604 5602 5602 5602 5600 5597 5594 5591 5591 5590 5591 5593 5595 5599 5601 5602 5604 5606 5607
5609 5608 5609 5609 5610 5611 5612 5611 5610 5608 5605 5603 5601 5601 5599 5598 5598 5598 5596 5595 5592 5592 5592 5593 5592 5590 5588 5585 5584 5586 5587 5589 5592 5594 5594 5596 5599 5601
5592 5595 5597 5597 5598 5600 5600 5600 5599 5597 5596 5594 5592 5590 5589 5588 5587 5587 5586 5584 5583 5583 5583 5584 5582 5580 5579 5582 5581 5580 5581 5583 5586 5587 5588 5588 5592 5596
5581 5585 5586 5587 5588 5588 5587 5587 5586 5586 5585 5582 5580 5579 5578 5577 5576 5575 5575 5574 5574 5574 5575 5576 5574 5571 5569 5573 5580 5579 5578 5579 5580 5581 5582 5583 5586 5590
5577 5578 5577 5577 5576 5575 5574 5574 5573 5573 5571 5570 5568 5568 5567 5566 5566 5566 5566 5565 5565 5566 5567 5568 5568 5568 5567 5569 5572 5575 5575 5575 5575 5575 5577 5579 5581 5584
5569 5567 5566 5564 5563 5561 5560 5559 5559 5558 5558 5557 5556 5556 5556 5555 5556 5557 5558 5558 5557 5558 5560 5562 5565 5566 5565 5564 5564 5569 5572 5573 5574 5572 5573 5572 5573 5576
5556 5553 5552 5549 5548 5547 5545 5545 5545 5545 5545 5545 5545 5546 5547 5547 5548 5550 5551 5551 5553 5554 5555 5558 5560 5559 5558 5558 5560 5564 5567 5569 5571 5570 5570 5571 5570 5570
5540 5538 5536 5535 5534 5532 5531 5531 5531 5532 5532 5533 5535 5537 5539 5540 5542 5543 5545 5546 5548 5549 5550 5551 5552 5553 5554 5556 5557 5560 5562 5564 5565 5565 5566 5568 5567 5568